Weather History for Tomahawk, WI

Change the Weather History Date:

Thursday, October 4, 2012

  Actual Average (KRHI) Record (KRHI)
Temperature  
Mean Temperature 49 °F 48 °F  
Max Temperature 59 °F 59 °F 84 °F (1922)
Min Temperature 37 °F 37 °F 22 °F (1980)
Degree Days  
Heating Degree Days 16 17  
Month to date heating degree days 67  
Since 1 July heating degree days 499  
Cooling Degree Days 0 0  
Month to date cooling degree days 0  
Year to date cooling degree days 259  
Moisture  
Dew Point 37 °F    
Average Humidity 68    
Maximum Humidity 100    
Minimum Humidity 41    
Precipitation  
Precipitation 0.00 in 0.11 in 2.24 in (2005)
Month to date precipitation 0.48  
Year to date precipitation 25.56  
Snow  
Snow 0.00 in - T in (2004)
Month to date snowfall  
Since 1 July snowfall  
Since 1 September snowfall  
Snow Depth -    
Sea Level Pressure  
Sea Level Pressure 29.91 in    
Wind  
Wind Speed 5 mph (SW)    
Max Wind Speed 20 mph    
Max Gust Speed 28 mph    
Visibility 10 miles    
Events      
T = Trace of Precipitation, MM = Missing Value Source: NWS Daily Summary

Daily Weather History Graph

Daily Weather History Graph

Search for Another Location

Airport:

Trip Planner

Search our weather history database for the weather conditions in past years. The results will help you decide how hot, cold, wet, or windy it might be!

Date:

Astronomy

Oct. 04, 2012 Rise Set
Actual Time 7:01 AM CDT 6:32 PM CDT
Civil Twilight 6:32 AM CDT 7:02 PM CDT
Nautical Twilight 5:58 AM CDT 7:36 PM CDT
Astronomical Twilight 5:23 AM CDT 8:11 PM CDT
Moon 8:55 PM CDT (10/4) 11:32 AM CDT (10/4)
Length of Visible Light 12h 30m
Length of Day
11h 31m
Waning Gibbous, 82% of the Moon is Illuminated
Oct 4
Waning Gibbous
Oct 8
Last Quarter
Oct 15
New
Oct 21
First Quarter
Oct 29
Full

Hourly Weather History & Observations

Time (CDT) Temp. Windchill Dew Point Humidity Pressure Visibility Wind Dir Wind Speed Gust Speed Precip Events Conditions
12:15 AM 42.8 °F - 39.2 °F 87% 29.97 in 10.0 mi Calm Calm - N/A   Clear
12:35 AM 41.0 °F - 37.4 °F 87% 29.97 in 10.0 mi Calm Calm - N/A   Clear
12:55 AM 41.0 °F - 37.4 °F 87% 29.97 in 10.0 mi Calm Calm - N/A   Clear
1:15 AM 41.0 °F - 37.4 °F 87% 29.97 in 10.0 mi Calm Calm - N/A   Clear
1:35 AM 41.0 °F - 37.4 °F 87% 29.96 in 10.0 mi Calm Calm - N/A   Clear
1:55 AM 44.6 °F - 41.0 °F 87% 29.96 in 10.0 mi Calm Calm - N/A   Clear
2:15 AM 42.8 °F - 41.0 °F 93% 29.95 in 10.0 mi Calm Calm - N/A   Clear
2:35 AM 41.0 °F - 37.4 °F 87% 29.94 in 10.0 mi Calm Calm - N/A   Clear
2:55 AM 41.0 °F - 37.4 °F 87% 29.94 in 10.0 mi Calm Calm - N/A   Clear
3:15 AM 41.0 °F - 39.2 °F 93% 29.93 in 10.0 mi Calm Calm - N/A   Clear
3:35 AM 41.0 °F - 39.2 °F 93% 29.93 in 10.0 mi Calm Calm - N/A   Clear
3:55 AM 42.8 °F - 41.0 °F 93% 29.93 in 10.0 mi Calm Calm - N/A   Clear
4:15 AM 42.8 °F - 41.0 °F 93% 29.92 in 10.0 mi Calm Calm - N/A   Clear
4:35 AM 41.0 °F - 39.2 °F 93% 29.92 in 10.0 mi Calm Calm - N/A   Clear
4:55 AM 42.8 °F - 42.8 °F 100% 29.92 in 10.0 mi Calm Calm - N/A   Clear
5:15 AM 44.6 °F 43.1 °F 42.8 °F 93% 29.90 in 10.0 mi SE 3.5 mph - N/A   Scattered Clouds
5:55 AM 44.6 °F - 42.8 °F 93% 29.89 in 10.0 mi Calm Calm - N/A   Clear
6:15 AM 44.6 °F - 41.0 °F 87% 29.89 in 10.0 mi Calm Calm - N/A   Clear
6:35 AM 42.8 °F - 41.0 °F 93% 29.88 in 10.0 mi Calm Calm - N/A   Clear
6:55 AM 44.6 °F - 42.8 °F 93% 29.88 in 10.0 mi Calm Calm - N/A   Clear
7:15 AM 46.4 °F 45.2 °F 42.8 °F 87% 29.87 in 10.0 mi SSE 3.5 mph - N/A   Clear
7:35 AM 46.4 °F 45.2 °F 44.6 °F 93% 29.87 in 10.0 mi SSE 3.5 mph - N/A   Clear
7:55 AM 48.2 °F - 44.6 °F 87% 29.85 in 10.0 mi SSE 3.5 mph - N/A   Clear
8:15 AM 50.0 °F - 44.6 °F 82% 29.85 in 10.0 mi SSE 4.6 mph - N/A   Clear
8:35 AM 51.8 °F - 46.4 °F 82% 29.84 in 10.0 mi SSE 4.6 mph - N/A   Clear
8:55 AM 53.6 °F - 46.4 °F 77% 29.84 in 10.0 mi South 5.8 mph - N/A   Clear
9:15 AM 55.4 °F - 46.4 °F 72% 29.84 in 10.0 mi South 5.8 mph - N/A   Clear
9:35 AM 55.4 °F - 46.4 °F 72% 29.83 in 10.0 mi South 8.1 mph - N/A   Scattered Clouds
9:55 AM 57.2 °F - 46.4 °F 67% 29.83 in 10.0 mi South 4.6 mph - N/A   Scattered Clouds
10:15 AM 57.2 °F - 44.6 °F 63% 29.83 in 10.0 mi SW 5.8 mph - N/A   Scattered Clouds
10:35 AM 59.0 °F - 44.6 °F 59% 29.83 in 10.0 mi SSW 9.2 mph - N/A   Scattered Clouds
10:55 AM 59.0 °F - 44.6 °F 59% 29.83 in 10.0 mi SSW 6.9 mph - N/A   Scattered Clouds
11:15 AM 57.2 °F - 41.0 °F 55% 29.84 in 10.0 mi SW 11.5 mph 20.7 mph N/A   Scattered Clouds
11:35 AM 55.4 °F - 41.0 °F 58% 29.86 in 10.0 mi WSW 12.7 mph 20.7 mph N/A   Scattered Clouds
11:55 AM 53.6 °F - 41.0 °F 62% 29.86 in 7.0 mi WSW 10.4 mph 17.3 mph N/A   Scattered Clouds
12:15 PM 53.6 °F - 39.2 °F 58% 29.85 in 10.0 mi South 6.9 mph - N/A   Scattered Clouds
12:35 PM 55.4 °F - 39.2 °F 54% 29.86 in 10.0 mi SSW 6.9 mph 16.1 mph N/A   Clear
12:55 PM 55.4 °F - 37.4 °F 51% 29.86 in 10.0 mi SW 10.4 mph 19.6 mph N/A   Clear
1:35 PM 55.4 °F - 37.4 °F 51% 29.85 in 10.0 mi WSW 6.9 mph 20.7 mph N/A   Scattered Clouds
1:55 PM 57.2 °F - 37.4 °F 48% 29.85 in 10.0 mi WSW 10.4 mph 19.6 mph N/A   Scattered Clouds
2:15 PM 57.2 °F - 35.6 °F 44% 29.85 in 10.0 mi SW 10.4 mph 17.3 mph N/A   Clear
2:35 PM 55.4 °F - 33.8 °F 44% 29.87 in 10.0 mi WSW 8.1 mph 17.3 mph N/A   Clear
2:55 PM 55.4 °F - 33.8 °F 44% 29.87 in 10.0 mi SW 12.7 mph 19.6 mph N/A   Clear
3:15 PM 55.4 °F - 32.0 °F 41% 29.88 in 10.0 mi West 15.0 mph 23.0 mph N/A   Clear
3:35 PM 55.4 °F - 32.0 °F 41% 29.88 in 10.0 mi WSW 9.2 mph 24.2 mph N/A   Clear
3:55 PM 55.4 °F - 32.0 °F 41% 29.88 in 10.0 mi WSW 12.7 mph 20.7 mph N/A   Clear
4:15 PM 53.6 °F - 32.0 °F 44% 29.89 in 10.0 mi WSW 8.1 mph 21.9 mph N/A   Clear
4:35 PM 53.6 °F - 32.0 °F 44% 29.90 in 10.0 mi WSW 12.7 mph 19.6 mph N/A   Clear
4:55 PM 51.8 °F - 32.0 °F 47% 29.91 in 10.0 mi WSW 10.4 mph 20.7 mph N/A   Clear
5:15 PM 50.0 °F - 30.2 °F 47% 29.92 in 10.0 mi West 17.3 mph 27.6 mph N/A   Clear
5:35 PM 50.0 °F - 32.0 °F 50% 29.92 in 10.0 mi West 15.0 mph 24.2 mph N/A   Clear
5:55 PM 46.4 °F 41.5 °F 30.2 °F 53% 29.92 in 10.0 mi West 10.4 mph 20.7 mph N/A   Clear
6:15 PM 46.4 °F 41.9 °F 30.2 °F 53% 29.93 in 10.0 mi West 9.2 mph 20.7 mph N/A   Clear
6:35 PM 44.6 °F 41.4 °F 30.2 °F 57% 29.93 in 10.0 mi West 5.8 mph - N/A   Clear
6:55 PM 44.6 °F 39.2 °F 30.2 °F 57% 29.94 in 10.0 mi West 10.4 mph 19.6 mph N/A   Clear
7:15 PM 42.8 °F 38.0 °F 30.2 °F 61% 29.95 in 10.0 mi WSW 8.1 mph 18.4 mph N/A   Scattered Clouds
7:35 PM 44.6 °F 37.2 °F 30.2 °F 57% 29.96 in 10.0 mi West 17.3 mph 26.5 mph N/A   Mostly Cloudy
7:55 PM 42.8 °F 36.6 °F 30.2 °F 61% 29.96 in 10.0 mi West 11.5 mph 23.0 mph N/A   Mostly Cloudy
8:15 PM 42.8 °F 35.8 °F 30.2 °F 61% 29.96 in 10.0 mi West 13.8 mph 19.6 mph N/A   Overcast
8:35 PM 42.8 °F 36.2 °F 28.4 °F 57% 29.97 in 10.0 mi West 12.7 mph 26.5 mph N/A   Mostly Cloudy
8:55 PM 42.8 °F 36.2 °F 28.4 °F 57% 29.97 in 10.0 mi West 12.7 mph 21.9 mph N/A   Mostly Cloudy
9:15 PM 41.0 °F 33.5 °F 28.4 °F 61% 29.97 in 10.0 mi West 13.8 mph 20.7 mph N/A   Mostly Cloudy
9:35 PM 41.0 °F 33.9 °F 28.4 °F 61% 29.97 in 10.0 mi West 12.7 mph 24.2 mph N/A   Overcast
9:55 PM 41.0 °F 32.8 °F 28.4 °F 61% 29.97 in 10.0 mi West 16.1 mph 26.5 mph N/A   Overcast
10:15 PM 41.0 °F 31.9 °F 28.4 °F 61% 29.98 in 10.0 mi West 19.6 mph 27.6 mph N/A   Overcast
10:35 PM 41.0 °F 32.5 °F 28.4 °F 61% 29.98 in 10.0 mi West 17.3 mph 27.6 mph N/A   Overcast
10:55 PM 41.0 °F 32.8 °F 28.4 °F 61% 29.98 in 10.0 mi West 16.1 mph 24.2 mph N/A   Overcast
11:15 PM 39.2 °F 32.0 °F 28.4 °F 65% 29.97 in 10.0 mi West 11.5 mph 17.3 mph N/A   Overcast
11:35 PM 39.2 °F 30.5 °F 26.6 °F 61% 29.98 in 10.0 mi West 16.1 mph 23.0 mph N/A   Overcast
11:55 PM 37.4 °F 30.3 °F 26.6 °F 65% 29.98 in 10.0 mi West 10.4 mph 27.6 mph N/A   Overcast